Location: Melbourne
(37.8170°S, 144.9670°E)
Time: 18:02:09
(UTC+11:00)

ERBS - Visible Passes

Search period start: 13 December 2017 00:00
Search period end: 23 December 2017 00:00
Orbit: 420 x 442 km, 57.0° (Epoch: 12 December)

Date Brightness Start Highest point End Pass type
(mag) Time Alt. Az. Time Alt. Az. Time Alt. Az.
13 Dec 3.2 22:59:48 10° SSW 23:03:13 42° SE 23:03:14 42° SE visible
14 Dec 4.0 22:16:51 10° SSW 22:19:55 26° SE 22:21:22 20° ESE visible
14 Dec 4.9 23:53:27 10° WSW 23:54:35 17° W 23:54:35 17° W visible
15 Dec 4.6 21:34:04 10° S 21:36:33 17° SE 21:39:01 10° E visible
15 Dec 3.3 23:09:56 10° SW 23:12:47 42° W 23:12:47 42° W visible
16 Dec 2.3 22:26:39 10° SW 22:30:13 89° NW 22:31:02 51° NE visible
17 Dec 2.9 21:43:30 10° SSW 21:46:59 50° SE 21:49:19 18° ENE visible
17 Dec 5.1 23:21:37 10° W 23:22:33 12° WNW 23:22:33 12° WNW visible
18 Dec 4.1 22:37:21 10° WSW 22:40:08 22° WNW 22:40:54 20° NW visible
19 Dec 3.4 21:53:42 10° WSW 21:57:03 39° NW 21:59:19 17° N visible
20 Dec 2.5 21:10:19 10° SW 21:13:53 74° NW 21:17:22 10° NE visible
21 Dec 5.2 22:06:14 10° WNW 22:06:46 10° WNW 22:07:17 10° NW visible
22 Dec 4.7 21:21:11 10° WSW 21:23:43 18° WNW 21:26:12 10° NNW visible
